Location: Bergnershof
(48.9468°N, 10.9431°E)
Time: 22:39:13
(UTC+00:00)

Cosmos 2322 Rocket - Pass Details

Date: 03 March 2021
Orbit: 832 x 852 km, 71.0° (Epoch: 13 April)

Event Time Altitude Azimuth Distance (km) Brightness Sun altitude
Rises 17:24:08 0° 182° (S) 3,362 5.4 -4.3°
Reaches altitude 10° 17:26:40 10° 175° (S) 2,433 4.6 -4.7°
Maximum altitude 17:31:50 40° 108° (ESE) 1,214 2.6 -5.5°
Drops below altitude 10° 17:37:02 10° 40° (NE) 2,455 4.2 -6.4°
Sets 17:39:36 0° 34° (NNE) 3,396 5.0 -6.8°
